Airfield :
LOGIN :

Register | Disclaimer

   EN    FR    IT 

 










Legend :    VFR   Marginal VFR   IFR   Intensive IFR   Very Intensive IFR
Visi :
Ceiling :
>= 8 km
>= 3000ft
5 to 8 km
1000 to 3000 ft
1500m to 5 km
500 to 1000 ft
800 to 1500m
200 to 500 ft
< 800m
< 200 ft
Symbols :   Thunderstorms  Fog  Heavy snow  Heavy precipitations  Wind > 20 kt
SIGMETs :     Misc.  Thunderstorms  Icing  Turbulence  Mountain Waves  Volcanic Ashes






- Airport Elevation : 628 ft
- IATA code : CMR


LFGA - Colmar-Houssen

CURRENT METAR :
  • 071500Z AUTO 28008KT 240V330 CAVOK 14/M01 Q1018

EXPIRED METARs :
  • 071430Z AUTO VRB07KT CAVOK 14/M01 Q1018
  • 071400Z AUTO 30009KT 260V330 CAVOK 14/00 Q1018
  • 071330Z AUTO 28008KT 230V330 CAVOK 14/00 Q1018
  • 071300Z AUTO 27011KT 240V310 CAVOK 14/M01 Q1018
  • 071230Z AUTO 30012KT CAVOK 13/M00 Q1017

TAF N/A



MET'MAP, your aeronautical weather chart ! - Copyright ORBIFLY December 2007 - Disclaimer

ORBIFLY MET'MAP TEAM :

Programming & Development : Alexandra Zaïnal
Concept & original design : Baudouin d'Aumeries
Assistance for programming : Marc-Olivier Méhu
Technical & hardware support : Manuel Goepfert

Contact : metmap@orbifly.com




SOURCES & CREDITS :

   NOAA